Location: Unspecified
(0.0000°N, 0.0000°E)
Time: 13:56:28
(UTC+00:00)

deb Midas V - Pass Details

Date: 21 April 2026
Orbit: 2771 x 3389 km, 86.6° (Epoch: 16 May)

Event Time Altitude Azimuth Distance (km) Brightness Sun altitude
Rises 19:18:31 0° 344° (NNW) 7,350 ? -19.5°
Reaches altitude 10° 19:23:15 10° 337° (NNW) 6,283 ? -20.7°
Maximum altitude 19:38:30 40° 274° (W) 4,121 ? -24.4°
Drops below altitude 10° 19:52:55 10° 209° (SSW) 5,853 ? -27.9°
Sets 19:57:17 0° 201° (SSW) 6,806 ? -28.9°
